NSZ5023 ENGM-LEMG

Flight info

Callsign NSZ5023
Flight time N/A
Altitude 34000
Route VIPPA DCT ELKOP DCT NERDO DCT OMIMA DCT CIV/N0444F350 N872 MEDIL DCT KOVIN DCT DUCRA DCT RESMI DCT DEKOD DCT DISAK DCT ARKIP DCT ARNAV DCT LMG DCT UVELI DCT OSMOB DCT ARVID DCT PPN DCT NOLSA DCT ALEPO DCT VASUM N10 CJN L27 BLN
Aircraft B738/M-SDE2E3GHIJ1LRWXY/LB1

Departure

Time N/A
Airport Oslo-Gardermoen International Airport (ENGM)

Arrival

Time 2026-05-04 20:38
Airport Málaga-Costa del Sol Airport (LEMG)
Time Latitude Longitude Altitude Speed Heading
2026-05-04 20:30 36.58834 -4.09312 6576 ft 255 kts 260°
2026-05-04 20:30 36.58555 -4.11484 6325 ft 254 kts 267°
2026-05-04 20:30 36.58469 -4.13673 6058 ft 255 kts 255°
2026-05-04 20:31 36.57498 -4.15485 5808 ft 258 kts 217°
2026-05-04 20:31 36.55879 -4.16442 5633 ft 257 kts 206°
2026-05-04 20:31 36.54261 -4.17400 5377 ft 259 kts 210°
2026-05-04 20:31 36.52689 -4.18498 5138 ft 260 kts 213°
2026-05-04 20:32 36.51156 -4.19701 4893 ft 261 kts 216°
2026-05-04 20:32 36.49803 -4.21166 4591 ft 258 kts 241°
2026-05-04 20:32 36.49344 -4.23244 4369 ft 250 kts 276°
2026-05-04 20:32 36.49924 -4.25225 4143 ft 247 kts 306°
2026-05-04 20:33 36.51021 -4.26894 3807 ft 250 kts 312°
2026-05-04 20:33 36.52185 -4.28489 3540 ft 248 kts 313°
2026-05-04 20:33 36.53335 -4.30080 3301 ft 246 kts 312°
2026-05-04 20:33 36.54467 -4.31665 3080 ft 243 kts 312°
2026-05-04 20:34 36.55559 -4.33197 3008 ft 227 kts 312°
2026-05-04 20:34 36.56555 -4.34595 2956 ft 206 kts 312°
2026-05-04 20:34 36.57482 -4.35894 2711 ft 195 kts 312°
2026-05-04 20:34 36.58359 -4.37123 2454 ft 186 kts 311°
2026-05-04 20:35 36.59196 -4.38295 2224 ft 176 kts 311°
2026-05-04 20:35 36.59987 -4.39404 1986 ft 167 kts 311°
2026-05-04 20:35 36.60736 -4.40454 1766 ft 158 kts 311°
2026-05-04 20:35 36.61463 -4.41471 1569 ft 156 kts 310°
2026-05-04 20:36 36.62156 -4.42441 1406 ft 142 kts 310°
2026-05-04 20:36 36.62817 -4.43367 1184 ft 142 kts 310°
2026-05-04 20:36 36.63462 -4.44270 1000 ft 138 kts 310°
2026-05-04 20:36 36.64097 -4.45156 819 ft 138 kts 310°
2026-05-04 20:37 36.64741 -4.46061 627 ft 142 kts 309°
2026-05-04 20:37 36.65403 -4.46990 430 ft 142 kts 310°
2026-05-04 20:37 36.66054 -4.47904 219 ft 141 kts 310°
2026-05-04 20:37 36.66707 -4.48809 50 ft 139 kts 310°
2026-05-04 20:38 36.67271 -4.49604 47 ft 105 kts 311°
2026-05-04 20:38 36.67656 -4.50119 53 ft 57 kts 323°
2026-05-04 20:38 36.67877 -4.50225 48 ft 13 kts 26°
2026-05-04 20:38 36.67856 -4.50125 43 ft 14 kts 130°
2026-05-04 20:39 36.67793 -4.50037 43 ft 13 kts 133°
2026-05-04 20:39 36.67731 -4.49954 43 ft 13 kts 133°
2026-05-04 20:39 36.67755 -4.49871 41 ft 13 kts 16°
2026-05-04 20:39 36.67830 -4.49819 41 ft 12 kts 40°
2026-05-04 20:40 36.67869 -4.49752 41 ft 4 kts 104°
2026-05-04 20:40 36.67850 -4.49725 41 ft 4 kts 133°
2026-05-04 20:40 36.67825 -4.49691 41 ft 7 kts 133°
2026-05-04 20:40 36.67807 -4.49666 41 ft 0 kts 131°
2026-05-04 20:41 36.67804 -4.49662 41 ft 1 kts 131°
2026-05-04 20:41 36.67800 -4.49657 41 ft 0 kts 131°